FENGYUN 1C DEB

Satellite information

Favourite Embed

Satellite Type and Status

DEBRISIN ORBIT

Key statistics

Satellite FENGYUN 1C DEB at a glance.

Uptime

9610

Days in orbit

Revolutions

≈ 14.0

Per day

Orbit

SSO

Sun Synchronous Orbit

Inclination

98.8

Latest

Satellite identification and parameters

Extended collection of information and parameters for FENGYUN 1C DEB.

Object identification

Identified? True

Debris? True

Object name: FENGYUN 1C DEB

International designator: 1999-025AKW

Object number (NORAD): 30556

Object ID (CCSDS): 30556

Country: PEOPLES REPUBLIC OF CHINA (PRC)

Current information (Y/N): Y

RCS size: SMALL

Orbital parameters

Period: 102.768 minutes

Inclination: 98.7807 deg

SMA: 7267.75 km

Apoapsis: 938.772 km

Periapsis: 840.458 km

RAAN: 240.091 deg

Eccentricy: 0.00676368

Argument of periapsis: 166.7368 deg

Mean anomaly: 253.8443 deg

Mean motion: 14.01208619 rev/day

Mean motion (dot): 0.00000754 rev/day2

B* drag term: 0.00051929123 1/REarth

Two-line elements (TLE)

Creation date: Aug. 31, 2025, 2:26 a.m.

Reference frame: TEME

Reference center: EARTH

Epoch: Aug. 30, 2025, 10:10 p.m. UTC

TLE line 0: 0 FENGYUN 1C DEB

TLE line 1: 1 30556U 99025AKW 25242.92429678 .00000754 00000-0 51929-3 0 9991

TLE line 2: 2 30556 98.7807 240.0910 0067637 166.7368 253.8443 14.01208619948037

Live tracking on map

Real-time ground track for satellite FENGYUN 1C DEB.

In-orbit conjunctions

A list of the most updated potential collisions computed for object FENGYUN 1C DEB.

Target Orbit TCA Probability of collision Miss distance Type
FENGYUN 1C DEB SSO 2025-06-14 04:59:23 0.000113005 502.0 (m) DEBRIS
METEOR 1-5 DEB LEO 2025-04-27 09:20:51 0.0001448121 139.0 (m) DEBRIS
USA 40 R/B DEB HEO 2024-09-27 00:56:34 0.0001041734 936.0 (m) DEBRIS

Associated space launch

Chinese polar orbiting meteorological satellite

FENGYUN 1C DEB was lifted into orbit during the mission ‘Long March 4B | Feng Yun 1C’, on board a Long March 4B space rocket.

The launch took place on May 10, 1999, 1:33 a.m. from Launch Complex 7.

For more information about the launch, click the button.

Launch to space Long March 4B | Feng Yun 1C
Long March 4B | Feng Yun 1C

Agency: N/A

Status: Launch Successful

Launch date: May 10, 1999, 1:33 a.m. UTC

Rocket: Long March 4B

Launch pad: Launch Complex 7

Location: Taiyuan Satellite Launch Center, People's Republic of China

...

Latest news about this satellite

There are no fresh news available about this satellite. Check back as we update our databases every day.


Newsletter sign-up

Weekly statistics, charts and insights to help you stay on top of the space industry.